Regional Weather Roundup
Issued by NWS

Home | Current Version | Previous Version | Graphics & Text | Print | Product List | Glossary On
Versions: 1 2 3 4 5 6 7 8 9 10 11 12 13 14 15 16 17 18 19 20 21 22 23 24 25 26 27 28 29 30 31 32 33 34 35 36 37 38 39 40 41 42 43 44 45 46 47 48 49 50
000
ASUS43 KDTX 302001
RWRMI
MICHIGAN HOURLY REGIONAL WEATHER ROUNDUP
NATIONAL WEATHER SERVICE DETROIT/PONTIAC MI
400 PM EDT TUE SEP 30 2014

NOTE: "FAIR" INDICATES FEW OR NO CLOUDS BELOW 12,000 FEET WITH NO
SIGNIFICANT WEATHER AND/OR OBSTRUCTION TO VISIBILITY.

MIZ047>049-052>055-059>063-066>070-074>076-081>083-302100-
SOUTHEAST LOWER MICHIGAN

CITY           SKY/WX    TMP DP  RH WIND       PRES   REMARKS
ADRIAN         CLOUDY    58  48  69 NE6       29.99R
ALMA           CLOUDY    56  47  73 NE8       30.01F
ANN ARBOR      CLOUDY    59  48  67 N8        29.96F
BAD AXE        CLOUDY    51  51 100 N13       29.98S FOG
CARO           DRIZZLE   52  50  94 N10       30.00R
DETROIT CITY   CLOUDY    57  48  72 N8        29.99R
DETROIT        CLOUDY    58  50  75 NW10      29.97R
FLINT          CLOUDY    53  48  83 NW9       30.01R HAZE
GROSSE ILE     CLOUDY    61  52  72 N5        29.94S
HILLSDALE      CLOUDY    56  49  79 CALM      29.99S
HOWELL         CLOUDY    54  47  79 N6        29.99S

CITY           SKY/WX    TMP DP  RH WIND       PRES   REMARKS
JACKSON        CLOUDY    57  48  72 VRB3      29.98S
LAMBERTVILLE   CLOUDY    59  50  72 CALM      29.97F
LANSING        CLOUDY    56  46  69 N7        30.00S
LAPEER         CLOUDY    52  48  84 N10       29.99R
MASON          CLOUDY    55  47  75 N6        29.99S
MONROE         CLOUDY    59  52  77 CALM      29.95S
MT. CLEMENS    CLOUDY    55  50  82 N10       29.95R
PONTIAC        CLOUDY    53  48  83 NW9       29.98R
PORT HOPE        N/A     55  53  93 CALM      29.95F
PORT HURON     CLOUDY    54  50  87 NW7       29.97S
TRI CITIES     CLOUDY    54  46  74 N10       30.02S FOG
TROY           CLOUDY    57  49  74 N8        29.99S
SAGINAW HB     DRIZZLE   52  52 100 N5        30.01R
$$
MIZ043>046-050>051-056>058-064>065-071>073-077>080-302100-
SOUTHWEST LOWER MICHIGAN

CITY           SKY/WX    TMP DP  RH WIND       PRES   REMARKS
BATTLE CREEK   CLOUDY    56  47  71 N7        30.01R
BIG RAPIDS     CLOUDY    54  50  87 N3        30.01S
COLDWATER      CLOUDY    56  49  78 N5        29.99S
FREMONT        CLOUDY    54  45  72 CALM      30.02R
HOLLAND        CLOUDY    56  47  71 NW6       30.02S
GRAND RAPIDS   CLOUDY    58  49  72 N7        30.01S
IONIA          CLOUDY    58  48  68 NE5       29.99S
KALAMAZOO      CLOUDY    55  47  74 NW7       30.01S
LUDINGTON      CLOUDY    52  48  86 N5        30.04R
MARSHALL       CLOUDY    55  47  73 N3        29.99S
MOUNT PLEASANT CLOUDY    55  47  74 N8        30.00F
MUSKEGON       CLOUDY    57  46  66 NE5       30.02S
SOUTH HAVEN    CLOUDY    55  47  77 N6        30.01F
$$
MIZ016>042-302100-
NORTHERN LOWER MICHIGAN

CITY           SKY/WX    TMP DP  RH WIND       PRES   REMARKS
ALPENA         CLOUDY    50  46  86 N10       30.03S
BEAVER ISLAND  CLOUDY    53  47  79 NE5       30.05F
BELLAIRE       CLOUDY    53  47  79 NE7       30.04S
CADILLAC       CLOUDY    49  46  90 N6        30.02S
CHARLEVOIX     CLOUDY    52  48  84 N6        30.07F
FRANKFORT      CLOUDY    54  46  75 NE5       30.04S
GAYLORD        CLOUDY    47  45  93 VRB5      30.04R FOG
GRAYLING       CLOUDY    54  48  81 N7        30.03S
HARBOR SPRINGS CLOUDY    51  46  82 E7        30.05S
HOUGHTON LAKE  CLOUDY    53  46  77 NE8       30.02F
OSCODA         CLOUDY    50  49  97 N12       30.01R
PELLSTON       CLOUDY    51  45  79 NE6       30.06S
TRAVERSE CITY  CLOUDY    53  46  77 NE7       30.03S
$$
MIZ007>008-015-302100-
EASTERN UPPER MICHIGAN

CITY           SKY/WX    TMP DP  RH WIND       PRES   REMARKS
MACKINAC ISLAN CLOUDY    50  46  86 CALM      30.05S
NEWBERRY       CLOUDY    56  46  68 E6        30.04S
S. S. MARIE    CLOUDY    56  45  66 S3        30.04S
$$
MIZ004>006-011>014-085-302100-
CENTRAL UPPER MICHIGAN

CITY           SKY/WX    TMP DP  RH WIND       PRES   REMARKS
MANISTIQUE     CLOUDY    56  46  69 N6        30.04F
SAWYER-GWINN   CLOUDY    45  39  81 N6        30.08S
$$
MIZ001>003-009>011-084-302100-
WESTERN UPPER MICHIGAN

CITY           SKY/WX    TMP DP  RH WIND       PRES   REMARKS
IRON MOUNTAIN  SUNNY     57  42  57 VRB5      30.05S
HOUGHTON       SUNNY     51  39  63 E8        30.07F
COPPER HARBOR    N/A     49  39  68 E7        30.10F
$$

ABBREVIATIONS USED IN REMARKS
   TC - TEMPERATURE IN CELSIUS
  WCI - WIND CHILL INDEX
   HX - HEAT INDEX
  VSB - VISIBILITY



USA.gov is the U.S. government's official web portal to all federal, state and local government web resources and services.